Location: Austin
(30.3000°N, 97.7500°W)
Time: 22:17:57
(UTC-06:00)

Centaur AC-64 - Pass Details

Date: 03 December 2025
Orbit: 310 x 24683 km, 23.1° (Epoch: 03 December)

Event Time Altitude Azimuth Distance (km) Brightness Sun altitude
Rises 06:23:52 0° 259° (W) 11,612 8.5 -10.4°
Reaches altitude 10° 06:37:16 10° 256° (WSW) 6,867 7.4 -7.7°
Maximum altitude 06:50:54 44° 190° (S) 1,336 4.4 -4.9°
Drops below altitude 10° 06:54:24 10° 115° (ESE) 1,819 7.0 -4.2°
Sets 06:55:46 0° 106° (ESE) 2,404 8.2 -4.0°
